Voltar ao catálogo

THOR ABLESTAR DEB

AtivoLEO
NORAD 245·DEBRIS·🇺🇸 United States

Lançado Jun 29, 1961 de Cape Canaveral Space Force Station

Loading…

Próximas Passagens (próximas 24 horas)

TLE

AtualizadoSource: Space-Track

Época: Sep 9, 2026, 15:17 UTC

1 00245U 61015CA  26252.63707206  .00000125  00000-0  10251-3 0  9992
2 00245  66.1035 309.5716 0045934 160.6459 199.6386 14.18285032339855

Acompanhe THOR ABLESTAR DEB em tempo real com AllMySat

Download on the App Store